Location: Cedarbrook
(36.3103°N, 86.6422°W)
Time: 08:58:13
(UTC+00:00)

OAO 3 Rocket - Pass Details

Date: 29 October 2020
Orbit: 629 x 682 km, 35.0° (Epoch: 04 December)

Event Time Altitude Azimuth Distance (km) Brightness Sun altitude
Rises 23:21:07 0° 277° (W) 2,996 8.2 -6.4°
Reaches altitude 10° 23:23:36 10° 270° (W) 2,073 7.4 -6.8°
Maximum altitude 23:28:09 42° 200° (SSW) 924 4.3 -7.7°
Drops below altitude 10° 23:32:38 10° 129° (SE) 2,034 5.3 -8.6°
Enters shadow 23:34:31 - 124° (SE) 2,728 5.9 -9.0°
